Location: Strawberry
(45.6646°N, 111.9596°W)
Time: 14:01:10
(UTC+00:00)

Tiangong - Pass Details

Date: 21 August 2022
Orbit: 377 x 382 km, 41.5° (Epoch: 27 September)

Event Time Altitude Azimuth Distance (km) Brightness Sun altitude
Rises 04:44:34 0° 266° (W) 2,238 2.3 -21.1°
Reaches altitude 10° 04:46:46 10° 255° (WSW) 1,384 1.0 -21.4°
Enters shadow 04:47:49 18° 243° (WSW) 1,025 0.2 -21.5°
